[[{"header":{"parameterUnit":"m.s-1","parameterCategory":1,"la1":30.2991,"la2":30.254,"lo1":-89.0895,"lo2":-89.0444,"dy":0.0017,"dx":0.0017,"nx":28,"ny":28,"refTime":"2023-09-07T21:00:00:Z","depth":0,"parameterNumber":2,"parameterNumberName":"U-component_of_WINDS"},"data":[0,0,0,0,0,0,0,0,0,0,0,0,0,0,0,0,0,0,0,0,0,0,0,0,0,0,0,0,0,0,0,0,0,0,0,0,0,0,0,0,0,0,0,0,0,0,0,0,0,0,0,0,0,0,0,0,0,0,3.0304,3.0307,0,3.0591,3.0594,3.0597,3.0731,3.0731,3.0731,3.0731,3.0991,3.0998,3.1005,0,0,0,0,0,0,0,0,0,0,0,0,0,2.9835,2.9843,3.0303,3.0307,3.0311,3.059,3.0594,3.0598,3.0731,3.0731,3.0731,3.0731,3.0989,3.0997,3.1005,0,0,0,0,0,0,0,0,0,0,0,0,0,3.0071,2.9846,3.0303,3.0412,3.0425,3.059,3.0594,3.0599,3.0731,3.0731,3.0731,3.0731,3.0986,3.0996,3.1007,3.1075,0,0,3.1039,3.1043,0,0,0,0,0,0,0,0,3.0057,3.0088,3.0392,3.0405,3.0419,3.0626,3.0525,3.0757,3.0731,3.0614,3.0731,3.0731,3.0867,3.0888,3.0941,3.1087,3.1098,3.104,3.1046,3.1051,3.1054,0,0,0,0,0,0,0,3.0041,3.0076,3.0416,3.0396,3.0413,3.0435,3.0468,3.0569,3.0736,3.0624,3.0634,3.0668,3.0874,3.093,3.0948,3.1102,3.1039,3.1049,3.1055,3.1059,3.1315,3.1315,0,0,0,0,0,0,3.0012,3.0062,3.0407,3.0425,3.0236,3.0443,3.0481,3.0559,3.0736,3.0764,3.0668,3.0674,3.0912,3.0935,3.0957,3.105,3.105,3.106,3.1066,3.1314,3.1315,3.1315,0,0,0,0,0,0,3.0001,3.0042,3.0395,3.0247,3.0294,3.0452,3.0538,3.0565,3.0622,3.0771,3.0797,3.0697,3.0913,3.0942,3.1047,3.106,3.1065,3.1075,3.1314,3.1315,3.1315,3.1234,0,0,0,0,0,0,2.9987,3.0037,3.0073,3.0247,3.0301,3.049,3.0539,3.057,3.0643,3.0653,3.0805,3.0829,3.0915,3.103,3.1057,3.1075,3.1083,3.1313,3.1314,3.1315,3.1236,3.1231,3.1228,0,0,0,0,0,2.997,3.0031,3.0074,3.0115,3.0351,3.0491,3.052,3.0629,3.0644,3.0676,3.0771,3.0824,3.1054,3.104,3.1071,3.1092,3.1313,3.1314,3.1315,3.1237,3.1232,3.1228,0,0,0,0,0,0,2.9841,3.0056,3.0106,3.0227,3.0342,3.0513,3.0558,3.0619,3.0722,3.0725,3.0844,3.0876,3.0969,3.104,3.102,3.1166,3.1188,3.1195,3.1118,3.1114,3.111,3.1091,3.1092,0,0,0,0,0,2.983,2.9937,3.0113,3.0201,3.0258,3.0397,3.0462,3.0536,3.0654,3.0699,3.0802,3.0905,3.1001,3.106,3.1156,3.1245,3.1278,3.1274,3.127,3.1266,3.1271,3.1322,3.1322,3.1319,3.1319,3.1319,0,0,2.9801,2.9931,2.999,3.018,3.0277,3.0375,3.0437,3.0537,3.0608,3.0711,3.082,3.0897,3.1019,3.1116,3.1163,3.1178,3.1279,3.1268,3.1264,3.1271,3.1323,3.1323,3.1323,3.132,3.132,3.1319,0,0,2.9802,2.9913,3.0001,3.0099,3.025,3.0343,3.0363,3.0527,3.0586,3.0699,3.0779,3.0857,3.102,3.1105,3.1168,3.12,3.1251,3.1226,3.1205,3.1253,3.1253,3.1254,3.1264,3.1267,3.123,3.1229,3.1229,0,2.9745,2.9909,3.0034,3.0135,3.0213,3.0321,3.0405,3.0489,3.0657,3.0704,3.072,3.0929,3.1017,3.1135,3.1144,3.1191,3.1213,3.121,3.1245,3.1247,3.1249,3.126,3.1264,3.1226,3.1226,3.1227,3.1227,0,2.983,2.9941,2.9992,3.0167,3.025,3.0339,3.0469,3.0535,3.06,3.0688,3.0797,3.0909,3.103,3.1062,3.1121,3.1187,3.1192,3.1224,3.1249,3.1244,3.1256,3.1261,3.122,3.1222,3.1223,3.1224,0,0,2.9759,3.0006,3.0022,3.0103,3.0277,3.0359,3.0448,3.0579,3.0633,3.0742,3.0818,3.0953,3.0986,3.1058,3.1127,3.1169,3.1186,3.1196,3.12,3.1191,3.1262,3.1238,3.1242,3.122,3.1222,3.1223,3.1252,0,2.9784,2.9969,3.0084,3.0216,3.0317,3.042,3.0498,3.0606,3.0689,3.0777,3.0863,3.0959,3.0994,3.1039,3.1085,3.1174,3.1201,3.1173,3.1284,3.1286,3.1253,3.1249,3.1223,3.1246,3.1258,3.1259,3.1259,0,2.9839,2.9962,3.0109,3.0273,3.0319,3.039,3.0517,3.0603,3.0724,3.078,3.0863,3.0934,3.1024,3.1039,3.1161,3.1139,3.1189,3.1239,3.1242,3.1257,3.1274,3.1263,3.1256,3.126,3.1268,3.1267,3.1267,0,2.9774,2.9972,3.0088,3.0152,3.0346,3.0393,3.0473,3.0596,3.0666,3.0772,3.0818,3.0928,3.0988,3.1067,3.1163,3.1166,3.1273,3.1297,3.1316,3.1314,3.1336,3.1333,3.1337,3.1366,3.1365,3.1365,3.1365,0,2.9791,2.9876,3.0062,3.0132,3.0227,3.0353,3.0439,3.0526,3.0634,3.0715,3.0804,3.0875,3.0998,3.108,3.1153,3.1242,3.1266,3.1309,3.1327,3.1303,3.1297,3.1338,3.1339,3.1366,3.1366,3.1366,3.1366,0,2.9735,2.9864,2.9995,3.0171,3.0216,3.0279,3.0423,3.0489,3.0577,3.0677,3.0707,3.0841,3.0943,3.1048,3.1181,3.123,3.1316,3.1341,3.1279,3.129,3.1305,3.1302,3.1336,3.1346,3.1365,3.1365,3.1365,0,2.9739,2.9809,2.9995,3.0063,3.0146,3.025,3.0326,3.0447,3.052,3.0665,3.071,3.0822,3.0919,3.1075,3.1177,3.1279,3.1307,3.1312,3.1322,3.1295,3.1307,3.1303,3.1309,3.1307,3.1307,3.1306,3.1306,0,2.9731,2.9793,2.9906,3.0041,3.0132,3.024,3.0349,3.0395,3.0536,3.0611,3.0724,3.0799,3.0942,3.1049,3.1164,3.1233,3.129,3.1302,3.1312,3.1287,3.125,3.1271,3.127,3.13,3.1301,3.1301,3.1302,3.1302,2.9706,2.9774,2.9918,3.0039,3.0138,3.0239,3.0312,3.0412,3.0513,3.0648,3.0709,3.082,3.0934,3.1097,3.1166,3.1247,3.1263,3.1277,3.1281,3.1283,3.1277,3.1237,3.1268,3.1268,3.1268,3.1268,3.1269,0,2.9704,2.9803,2.9915,3.0073,3.0166,3.0224,3.0348,3.0418,3.0521,3.0629,3.0725,3.0851,3.0955,3.1067,3.1175,3.1219,3.1247,3.1243,3.1241,3.1256,3.1257,3.1239,3.1218,3.1218,3.1218,3.1218,3.1218,3.1218,2.9714,2.9834,2.9911,3.0075,3.0169,3.0291,3.0357,3.0447,3.0535,3.0678,3.077,3.0846,3.0953,3.107,3.1165,3.1194,3.1229,3.1217,3.1253,3.1252,3.1256,3.1259,3.1243,3.1224,3.1224,3.1246,3.1246,3.1246]},{"header":{"parameterUnit":"m.s-1","parameterCategory":1,"la1":30.2991,"la2":30.254,"lo1":-89.0895,"lo2":-89.0444,"dy":0.0017,"dx":0.0017,"nx":28,"ny":28,"refTime":"2023-09-07T21:00:00:Z","depth":0,"parameterNumber":3,"parameterNumberName":"V-component_of_WINDS"},"data":[0,0,0,0,0,0,0,0,0,0,0,0,0,0,0,0,0,0,0,0,0,0,0,0,0,0,0,0,0,0,0,0,0,0,0,0,0,0,0,0,0,0,0,0,0,0,0,0,0,0,0,0,0,0,0,0,0,0,3.7256,3.7259,0,3.7499,3.7502,3.7504,3.7632,3.7632,3.7632,3.7633,3.787,3.7876,3.7882,0,0,0,0,0,0,0,0,0,0,0,0,0,3.6899,3.6904,3.7256,3.7259,3.7262,3.7499,3.7502,3.7505,3.7632,3.7632,3.7632,3.7633,3.7868,3.7875,3.7882,0,0,0,0,0,0,0,0,0,0,0,0,0,3.7088,3.6906,3.7256,3.7354,3.7366,3.7498,3.7502,3.7506,3.7632,3.7632,3.7633,3.7633,3.7865,3.7874,3.7883,3.7932,0,0,3.7911,3.7915,0,0,0,0,0,0,0,0,3.7077,3.7101,3.7337,3.7348,3.7361,3.7536,3.7463,3.7649,3.7632,3.753,3.7633,3.7633,3.7758,3.7776,3.782,3.7944,3.7954,3.7912,3.7917,3.7921,3.7924,0,0,0,0,0,0,0,3.7064,3.7091,3.7352,3.734,3.7355,3.7385,3.7413,3.7499,3.7638,3.7539,3.7549,3.7577,3.7764,3.7811,3.7826,3.7957,3.7912,3.792,3.7925,3.7929,3.8143,3.8143,0,0,0,0,0,0,3.7036,3.708,3.7344,3.7359,3.7217,3.7391,3.7422,3.7479,3.7638,3.7663,3.7576,3.7582,3.7795,3.7816,3.7835,3.791,3.7921,3.793,3.7935,3.8143,3.8143,3.8143,0,0,0,0,0,0,3.7028,3.7058,3.7334,3.7223,3.726,3.7397,3.746,3.7484,3.7531,3.7666,3.7691,3.7599,3.7796,3.7822,3.791,3.7919,3.7934,3.7942,3.8142,3.8143,3.8143,3.8054,0,0,0,0,0,0,3.7017,3.7055,3.7075,3.7222,3.7266,3.7406,3.7461,3.7488,3.7547,3.7557,3.7694,3.7717,3.7798,3.7896,3.7919,3.7932,3.7949,3.8142,3.8143,3.8143,3.8057,3.8051,3.8047,0,0,0,0,0,3.7004,3.7036,3.7075,3.7106,3.7294,3.7406,3.7431,3.7528,3.7547,3.757,3.7658,3.7712,3.7915,3.7904,3.7931,3.7947,3.8142,3.8142,3.8143,3.8059,3.8052,3.8047,0,0,0,0,0,0,3.6879,3.7056,3.7102,3.7183,3.728,3.7428,3.7457,3.7516,3.7605,3.761,3.7723,3.7753,3.7832,3.7898,3.7883,3.8008,3.8034,3.804,3.7961,3.7956,3.7951,3.7933,3.7957,0,0,0,0,0,3.6863,3.6941,3.709,3.7147,3.7194,3.7318,3.737,3.7438,3.754,3.758,3.7674,3.777,3.7856,3.7909,3.7995,3.8068,3.8102,3.8093,3.8087,3.8083,3.8086,3.8137,3.8136,3.8145,3.8145,3.8145,0,0,3.6825,3.6932,3.6973,3.7125,3.7208,3.7287,3.735,3.7428,3.7489,3.759,3.7682,3.7755,3.7869,3.7952,3.7993,3.8009,3.8093,3.8083,3.8078,3.8085,3.8137,3.8136,3.8135,3.8145,3.8145,3.8145,0,0,3.68,3.6887,3.6949,3.7033,3.716,3.7244,3.7258,3.7401,3.7455,3.755,3.7631,3.7703,3.7847,3.7928,3.7987,3.8004,3.8059,3.8028,3.8001,3.8049,3.8048,3.8048,3.8059,3.806,3.8031,3.8031,3.8031,0,3.6737,3.6862,3.6971,3.7049,3.7115,3.7219,3.7282,3.7357,3.7503,3.7547,3.7565,3.7755,3.7838,3.7945,3.795,3.7993,3.8016,3.8012,3.804,3.8041,3.8043,3.8054,3.8057,3.8027,3.8028,3.8028,3.8028,0,3.6781,3.6867,3.69,3.7048,3.7118,3.7187,3.7307,3.7365,3.7429,3.7511,3.7609,3.7715,3.7828,3.7858,3.7917,3.7975,3.7983,3.8019,3.8048,3.8036,3.8049,3.8053,3.8021,3.8023,3.8024,3.8025,0,0,3.6677,3.6893,3.6903,3.6975,3.7128,3.7195,3.7271,3.7388,3.7438,3.7537,3.7606,3.773,3.7769,3.7836,3.7906,3.7948,3.7962,3.7981,3.7985,3.7977,3.8039,3.8012,3.8015,3.8,3.8001,3.8002,3.8031,0,3.6676,3.6822,3.6927,3.7032,3.7116,3.722,3.7287,3.7388,3.7469,3.7551,3.7638,3.7727,3.7768,3.7811,3.7857,3.795,3.7976,3.7949,3.8066,3.8068,3.8036,3.8021,3.7991,3.8012,3.8036,3.8036,3.8037,0,3.6691,3.6797,3.6912,3.7065,3.7104,3.7162,3.7283,3.7359,3.7478,3.7534,3.7615,3.769,3.7777,3.78,3.7923,3.7903,3.7958,3.8012,3.8015,3.803,3.8052,3.8038,3.8021,3.8025,3.8045,3.8044,3.8044,0,3.661,3.6779,3.6873,3.693,3.7109,3.715,3.7225,3.7345,3.7411,3.7515,3.7561,3.7671,3.7731,3.7815,3.7919,3.7926,3.8034,3.8063,3.8084,3.8082,3.8101,3.8098,3.8095,3.8132,3.8132,3.8132,3.8132,0,3.6598,3.6665,3.684,3.6897,3.6977,3.7099,3.7174,3.7258,3.7366,3.7442,3.7537,3.7606,3.7738,3.7824,3.7905,3.7998,3.8023,3.8072,3.8093,3.8065,3.8059,3.8102,3.8104,3.8133,3.8133,3.8133,3.8133,0,3.6518,3.6638,3.6748,3.6912,3.6956,3.7008,3.7148,3.7209,3.7298,3.7394,3.7423,3.7562,3.7669,3.7782,3.7924,3.798,3.807,3.8098,3.8031,3.8044,3.806,3.8058,3.8084,3.8096,3.8122,3.8122,3.8122,0,3.6503,3.6559,3.6733,3.6794,3.687,3.6964,3.7036,3.7159,3.7229,3.7375,3.7418,3.7534,3.7632,3.7798,3.7911,3.8023,3.8056,3.8058,3.8072,3.8045,3.8061,3.8057,3.8066,3.8052,3.8051,3.805,3.805,0,3.6465,3.6525,3.6625,3.675,3.6834,3.6936,3.7041,3.7085,3.723,3.7304,3.7418,3.7495,3.7647,3.7761,3.7889,3.7966,3.8033,3.8046,3.8057,3.8029,3.799,3.8016,3.8021,3.8043,3.8044,3.8045,3.8045,3.8045,3.642,3.6478,3.6613,3.6724,3.6819,3.6918,3.6986,3.7088,3.7187,3.7323,3.739,3.7505,3.763,3.7809,3.7886,3.7978,3.7997,3.8012,3.8016,3.8019,3.8014,3.7975,3.8,3.8001,3.8001,3.8001,3.8002,0,3.6391,3.6485,3.6587,3.6737,3.6826,3.6888,3.701,3.708,3.7182,3.7295,3.7394,3.7528,3.7642,3.7768,3.789,3.794,3.7974,3.7968,3.7966,3.7984,3.7987,3.7967,3.7939,3.7939,3.7939,3.7939,3.7939,3.7939,3.6386,3.649,3.6566,3.672,3.6813,3.6931,3.6997,3.709,3.7182,3.733,3.7428,3.7512,3.7632,3.7765,3.7873,3.7908,3.7949,3.7935,3.7978,3.7978,3.7983,3.7987,3.797,3.7942,3.7942,3.7968,3.7968,3.7968]}]]